Location: Terra Rouge Observatory
(46.0000°N, 62.7500°W)
Time: 13:03:50
(UTC-03:00)

Amateur Radio Satellites - All Passes

Search period start: 29 August 2014 12:33
Search period end: 30 August 2014 12:33
Location: Terra Rouge Observatory, 46.0000°N, 62.7500°W

Satellite Date Start Highest point End Downlink Frequencies (MHz)
Time Altitude Azimuth
ITAMSAT 1 29 Aug 12:37:52 12:39:07 11° 53° (NE) 12:40:22 435.822 SSB
Oscar 16 29 Aug 12:40:27 12:44:31 24° 62° (ENE) 12:48:37 437.025 USB, Beacon 2401.1428
Uribyol 2 29 Aug 12:46:47 12:49:19 14° 56° (NE) 12:51:52 436.500 FM
AO-Echo 29 Aug 12:48:16 12:50:36 13° 58° (ENE) 12:52:55 ?
SO-50 29 Aug 12:48:36 12:53:21 61° 50° (NE) 12:58:08 436.795 FM
AO-27 29 Aug 13:03:50 13:07:19 19° 59° (ENE) 13:10:49 436.795 MHz FM
RS-15 29 Aug 13:09:56 13:19:03 29° 357° (N) 13:28:17 29.354 - 29.394 USB, Beacon 29.352 USB
UOSAT-12 29 Aug 13:17:40 13:21:03 19° 33° (NNE) 13:24:25 437.025 FM, 437.400 FM
FUNcube-1 29 Aug 13:19:32 13:21:44 14° 300° (WNW) 13:23:56 145.950 - 145.970 MHz USB
Gurwin Techsat 1B 29 Aug 13:23:59 13:26:29 14° 55° (NE) 13:28:58 435.225 FM
MaSat-1 29 Aug 13:35:13 13:39:34 32° 107° (ESE) 13:44:08 437.345 MHz
Oscar 19 29 Aug 13:43:41 13:48:50 78° 73° (ENE) 13:54:03 437.125 CW, 437.150 USB
JAS-1B 29 Aug 13:57:02 14:06:32 60° 67° (ENE) 14:15:02 435.800 - 435.900 CW/SSB
AO-7 29 Aug 14:04:50 14:09:43 17° 42° (NE) 14:14:37 29.400 - 29.500 MHz
ISS 29 Aug 14:05:11 14:08:16 34° 349° (N) 14:11:21 145.800 FM
ITAMSAT 1 29 Aug 14:12:32 14:17:39 66° 72° (ENE) 14:22:47 435.822 SSB
TMSAT-1 29 Aug 14:14:22 14:18:38 26° 62° (ENE) 14:22:56 436.925 FM
Oscar 16 29 Aug 14:18:32 14:23:33 51° 260° (W) 14:28:37 437.025 USB, Beacon 2401.1428
Uribyol 2 29 Aug 14:22:52 14:28:01 85° 74° (ENE) 14:33:13 436.500 FM
AO-Echo 29 Aug 14:23:39 14:28:42 88° 75° (ENE) 14:33:38 ?
SO-50 29 Aug 14:30:00 14:33:32 21° 248° (WSW) 14:37:05 436.795 FM
AO-27 29 Aug 14:41:08 14:46:18 71° 257° (WSW) 14:51:29 436.795 MHz FM
UOSAT-12 29 Aug 14:57:09 15:01:55 85° 54° (NE) 15:06:37 437.025 FM, 437.400 FM
Gurwin Techsat 1B 29 Aug 15:00:18 15:05:36 80° 74° (ENE) 15:10:56 435.225 FM
MaSat-1 29 Aug 15:11:47 15:16:31 41° 307° (NW) 15:21:26 437.345 MHz
Uosat F 29 Aug 15:14:35 15:18:01 19° 60° (ENE) 15:21:28 435.120 FM
RS-15 29 Aug 15:25:00 15:35:15 41° 31° (NNE) 15:45:45 29.354 - 29.394 USB, Beacon 29.352 USB
Oscar 19 29 Aug 15:25:58 15:28:48 15° 272° (W) 15:31:39 437.125 CW, 437.150 USB
ISS 29 Aug 15:42:29 15:45:33 33° 10° (N) 15:48:37 145.800 FM
JAS-1B 29 Aug 15:48:11 15:57:12 41° 265° (W) 16:05:29 435.800 - 435.900 CW/SSB
AO-7 29 Aug 15:52:45 16:00:54 61° 64° (ENE) 16:09:03 29.400 - 29.500 MHz
TMSAT-1 29 Aug 15:53:10 15:58:17 49° 261° (W) 16:03:26 436.925 FM
ITAMSAT 1 29 Aug 15:54:14 15:57:37 18° 270° (W) 16:01:02 435.822 SSB
Uribyol 2 29 Aug 16:05:48 16:08:11 13° 272° (W) 16:10:35 436.500 FM
AO-Echo 29 Aug 16:06:15 16:08:06 12° 272° (W) 16:09:57 ?
OPAL 29 Aug 16:28:34 16:31:08 14° 90° (E) 16:33:41 ?
Sapphire 29 Aug 16:30:30 16:32:49 13° 102° (ESE) 16:35:09 437.095 MHz 1200 baud AX-25 AFSK
UOSAT-12 29 Aug 16:39:05 16:41:24 14° 252° (WSW) 16:43:42 437.025 FM, 437.400 FM
Gurwin Techsat 1B 29 Aug 16:43:18 16:46:13 15° 272° (W) 16:49:08 435.225 FM
Uosat F 29 Aug 16:51:21 16:56:20 65° 258° (WSW) 17:01:20 435.120 FM
MaSat-1 29 Aug 16:53:59 16:54:59 11° 328° (NNW) 16:55:59 437.345 MHz
PCSat 29 Aug 16:57:47 17:02:04 25° 108° (ESE) 17:06:23 145.825 MHz
Hamsat 29 Aug 17:18:50 17:22:19 24° 66° (ENE) 17:25:49 145.90 MHz
ISS 29 Aug 17:19:13 17:22:33 85° 208° (SSW) 17:25:54 145.800 FM
RS-15 29 Aug 17:37:43 17:48:46 81° 238° (WSW) 18:00:16 29.354 - 29.394 USB, Beacon 29.352 USB
AO-7 29 Aug 17:46:43 17:54:06 34° 264° (W) 18:01:32 29.400 - 29.500 MHz
JAS-2 29 Aug 17:50:29 17:56:27 55° 71° (ENE) 18:01:49 435.800 - 435.900 CW/SSB, 435.910 FM
Oscar 10/S400 29 Aug 18:00:16 18:16:00 30° 145° (SE) 18:42:24 145.825 - 145.975 CW/USB, Beacon 145.810 USB
OPAL 29 Aug 18:05:25 18:10:40 86° 288° (WNW) 18:15:53 ?
Sapphire 29 Aug 18:09:58 18:15:23 84° 121° (ESE) 18:20:50 437.095 MHz 1200 baud AX-25 AFSK
PCSat 29 Aug 18:39:47 18:45:06 57° 307° (NW) 18:50:29 145.825 MHz
Hamsat 29 Aug 18:54:07 18:58:06 36° 263° (W) 19:02:09 145.90 MHz
ISS 29 Aug 18:56:59 18:58:51 14° 226° (SW) 19:00:43 145.800 FM
HO-68 29 Aug 19:07:23 19:11:19 16° 47° (NE) 19:15:16 435.675 MHz FM
SO-67 29 Aug 19:07:47 19:11:07 46° 73° (ENE) 19:14:29 435.3500 MHz FM
JAS-2 29 Aug 19:36:58 19:41:49 24° 266° (W) 19:46:19 435.800 - 435.900 CW/SSB, 435.910 FM
OPAL 29 Aug 19:45:57 19:48:47 15° 306° (NW) 19:51:38 ?
STRAND 1 29 Aug 19:47:03 19:52:02 50° 100° (E) 19:56:59 ?
RS-15 29 Aug 19:51:46 19:59:25 22° 260° (W) 20:07:17 29.354 - 29.394 USB, Beacon 29.352 USB
Sapphire 29 Aug 19:55:20 19:59:30 22° 322° (NW) 20:03:40 437.095 MHz 1200 baud AX-25 AFSK
PCSat 29 Aug 20:26:39 20:29:45 15° 330° (NNW) 20:32:51 145.825 MHz
UKube-1 29 Aug 20:35:47 20:38:55 20° 63° (ENE) 20:42:03 145.840 MHz, 145.915 MHz
SO-67 29 Aug 20:43:05 20:44:27 12° 270° (W) 20:45:49 435.3500 MHz FM
Oscar 11 29 Aug 20:43:58 20:46:26 15° 61° (ENE) 20:48:54 145.825 FM, Beacon 2401.500 USB
HO-68 29 Aug 20:50:42 20:57:44 66° 68° (ENE) 21:04:48 435.675 MHz FM
FUNcube-1 29 Aug 21:08:23 21:08:52 10° 57° (ENE) 21:09:21 145.950 - 145.970 MHz USB
STRAND 1 29 Aug 21:26:53 21:30:55 24° 298° (WNW) 21:34:56 ?
MaSat-1 29 Aug 21:50:39 21:53:56 18° 41° (NE) 21:56:59 437.345 MHz
UKube-1 29 Aug 22:10:37 22:14:48 47° 260° (W) 22:19:01 145.840 MHz, 145.915 MHz
Oscar 11 29 Aug 22:17:48 22:22:06 66° 258° (WSW) 22:26:28 145.825 FM, Beacon 2401.500 USB
HO-68 29 Aug 22:40:07 22:45:57 27° 267° (W) 22:51:51 435.675 MHz FM
FUNcube-1 29 Aug 22:40:20 22:44:31 86° 76° (ENE) 22:48:48 145.950 - 145.970 MHz USB
Saudisat 1A 29 Aug 23:10:21 23:14:23 36° 118° (ESE) 23:18:27 436.775 MHz
MaSat-1 29 Aug 23:26:56 23:31:41 78° 244° (WSW) 23:35:46 437.345 MHz
KITSAT 1 29 Aug 23:42:03 23:49:28 42° 111° (ESE) 23:56:54 435.175 FM
PCSat 30 Aug 00:00:15 00:02:04 12° 24° (NNE) 00:03:52 145.825 MHz
AO-40 30 Aug 00:24:28 01:34:30 13° 116° (ESE) 02:21:54 Beacon 2401.320
Saudisat 1A 30 Aug 00:50:01 00:54:00 33° 317° (NW) 00:58:02 436.775 MHz
Sapphire 30 Aug 01:12:43 01:17:07 24° 40° (NE) 01:21:29 437.095 MHz 1200 baud AX-25 AFSK
KITSAT 1 30 Aug 01:36:46 01:44:41 55° 312° (NW) 01:52:39 435.175 FM
PCSat 30 Aug 01:42:04 01:47:08 37° 47° (NE) 01:52:09 145.825 MHz
Oscar 19 30 Aug 01:53:29 01:57:35 23° 92° (E) 02:01:39 437.125 CW, 437.150 USB
ITAMSAT 1 30 Aug 02:23:49 02:27:30 19° 91° (E) 02:31:09 435.822 SSB
Oscar 16 30 Aug 02:27:35 02:32:37 47° 99° (E) 02:37:37 437.025 USB, Beacon 2401.1428
AO-Echo 30 Aug 02:29:06 02:32:44 22° 93° (E) 02:36:22 ?
Uribyol 2 30 Aug 02:33:38 02:37:53 25° 94° (E) 02:42:07 436.500 FM
AO-27 30 Aug 02:51:52 02:56:35 34° 96° (E) 03:01:17 436.795 MHz FM
Sapphire 30 Aug 02:55:40 03:01:06 73° 241° (WSW) 03:06:30 437.095 MHz 1200 baud AX-25 AFSK
Gurwin Techsat 1B 30 Aug 03:14:32 03:18:58 26° 94° (E) 03:23:23 435.225 FM
PCSat 30 Aug 03:25:32 03:30:35 40° 247° (WSW) 03:35:36 145.825 MHz
JAS-1B 30 Aug 03:32:07 03:39:06 65° 101° (E) 03:45:02 435.800 - 435.900 CW/SSB
Oscar 19 30 Aug 03:32:10 03:37:13 51° 290° (WNW) 03:42:13 437.125 CW, 437.150 USB
KITSAT 1 30 Aug 03:36:00 03:42:05 22° 339° (NNW) 03:48:10 435.175 FM
OPAL 30 Aug 03:44:54 03:49:23 33° 63° (ENE) 03:53:57 ?
AO-7 30 Aug 03:53:42 03:58:00 15° 86° (E) 04:02:16 29.400 - 29.500 MHz
ITAMSAT 1 30 Aug 04:02:17 04:07:24 60° 289° (WNW) 04:12:29 435.822 SSB
TMSAT-1 30 Aug 04:06:14 04:11:27 55° 100° (E) 04:16:38 436.925 FM
AO-Echo 30 Aug 04:07:17 04:11:45 44° 291° (WNW) 04:16:12 ?
Oscar 16 30 Aug 04:07:27 04:11:43 26° 297° (WNW) 04:15:58 437.025 USB, Beacon 2401.1428
Uribyol 2 30 Aug 04:12:37 04:17:35 47° 291° (WNW) 04:22:32 436.500 FM
AO-27 30 Aug 04:31:26 04:36:05 34° 294° (WNW) 04:40:43 436.795 MHz FM
Sapphire 30 Aug 04:42:18 04:43:33 11° 259° (W) 04:44:47 437.095 MHz 1200 baud AX-25 AFSK
SO-50 30 Aug 04:46:03 04:50:31 76° 124° (SE) 04:55:07 436.795 FM
Gurwin Techsat 1B 30 Aug 04:54:05 04:59:08 46° 292° (WNW) 05:04:10 435.225 FM
Uosat F 30 Aug 04:56:48 05:01:16 32° 96° (E) 05:05:42 435.120 FM
UOSAT-12 30 Aug 05:12:56 05:15:20 14° 109° (ESE) 05:17:45 437.025 FM, 437.400 FM
JAS-1B 30 Aug 05:23:29 05:29:03 25° 305° (NW) 05:34:00 435.800 - 435.900 CW/SSB
OPAL 30 Aug 05:23:33 05:28:12 36° 261° (W) 05:32:56 ?
STRAND 1 30 Aug 05:29:20 05:32:05 15° 57° (ENE) 05:34:50 ?
KITSAT 1 30 Aug 05:35:35 05:40:58 19° 9° (N) 05:46:20 435.175 FM
AO-7 30 Aug 05:43:56 05:52:16 72° 106° (ESE) 06:00:31 29.400 - 29.500 MHz
TMSAT-1 30 Aug 05:46:53 05:51:01 24° 299° (WNW) 05:55:07 436.925 FM
Saudisat 1A 30 Aug 05:55:56 05:58:24 14° 29° (NNE) 06:00:52 436.775 MHz
SO-50 30 Aug 06:28:09 06:31:37 21° 325° (NW) 06:35:10 436.795 FM
Uosat F 30 Aug 06:35:32 06:40:04 35° 294° (WNW) 06:44:35 435.120 FM
Hamsat 30 Aug 06:37:14 06:41:12 33° 96° (E) 06:45:07 145.90 MHz
JAS-2 30 Aug 06:41:16 06:46:02 35° 97° (E) 06:51:03 435.800 - 435.900 CW/SSB, 435.910 FM
UOSAT-12 30 Aug 06:50:11 06:54:49 82° 307° (NW) 06:59:34 437.025 FM, 437.400 FM
STRAND 1 30 Aug 07:05:28 07:10:34 88° 256° (WSW) 07:15:42 ?
KITSAT 1 30 Aug 07:31:46 07:39:08 36° 38° (NE) 07:46:27 435.175 FM
Saudisat 1A 30 Aug 07:34:28 07:38:52 63° 50° (NE) 07:43:14 436.775 MHz
AO-7 30 Aug 07:37:27 07:44:26 32° 307° (NW) 07:51:23 29.400 - 29.500 MHz
SO-67 30 Aug 08:02:03 08:05:21 39° 98° (E) 08:08:37 435.3500 MHz FM
RS-15 30 Aug 08:03:56 08:14:27 53° 113° (ESE) 08:24:50 29.354 - 29.394 USB, Beacon 29.352 USB
Hamsat 30 Aug 08:13:24 08:17:03 26° 294° (WNW) 08:20:39 145.90 MHz
JAS-2 30 Aug 08:26:33 08:31:10 33° 294° (WNW) 08:35:59 435.800 - 435.900 CW/SSB, 435.910 FM
UOSAT-12 30 Aug 08:32:27 08:35:43 18° 328° (NNW) 08:39:01 437.025 FM, 437.400 FM
STRAND 1 30 Aug 08:48:45 08:50:30 12° 273° (W) 08:52:16 ?
Saudisat 1A 30 Aug 09:15:06 09:18:00 17° 249° (WSW) 09:20:53 436.775 MHz
KITSAT 1 30 Aug 09:27:09 09:35:12 72° 241° (WSW) 09:43:12 435.175 FM
SO-67 30 Aug 09:36:05 09:38:05 15° 295° (WNW) 09:40:05 435.3500 MHz FM
UKube-1 30 Aug 09:56:46 10:00:16 23° 94° (E) 10:03:46 145.840 MHz, 145.915 MHz
HO-68 30 Aug 10:03:08 10:10:08 54° 101° (E) 10:17:06 435.675 MHz FM
Oscar 11 30 Aug 10:03:46 10:06:56 19° 92° (E) 10:10:05 145.825 FM, Beacon 2401.500 USB
RS-15 30 Aug 10:16:03 10:26:48 56° 318° (NW) 10:37:33 29.354 - 29.394 USB, Beacon 29.352 USB
FUNcube-1 30 Aug 10:28:03 10:30:42 15° 90° (E) 10:33:21 145.950 - 145.970 MHz USB
KITSAT 1 30 Aug 11:24:55 11:29:11 15° 261° (W) 11:33:26 435.175 FM
UKube-1 30 Aug 11:32:35 11:36:35 37° 292° (WNW) 11:40:33 145.840 MHz, 145.915 MHz
SO-50 30 Aug 11:35:15 11:39:13 25° 38° (NE) 11:43:14 436.795 FM
Oscar 11 30 Aug 11:39:10 11:43:21 45° 289° (WNW) 11:47:31 145.825 FM, Beacon 2401.500 USB
ISS 30 Aug 11:39:38 11:42:51 49° 146° (SE) 11:46:05 145.800 FM
HO-68 30 Aug 11:51:16 11:57:35 35° 301° (WNW) 12:03:54 435.675 MHz FM
UOSAT-12 30 Aug 11:59:41 12:00:21 10° 18° (NNE) 12:01:01 437.025 FM, 437.400 FM
FUNcube-1 30 Aug 12:03:01 12:07:29 63° 287° (WNW) 12:12:00 145.950 - 145.970 MHz USB
Oscar 16 30 Aug 12:10:58 12:13:34 14° 56° (NE) 12:16:10 437.025 USB, Beacon 2401.1428
